ARIANE 2 DEB

基本信息
目录编号:
33584
目录名称:
ARIANE 2 DEB
国际标识:
1989-027E
轨道中心:
EARTH
物体状态:
在轨
发射日期:
1989-04-02 UTC
轨道信息
数据来源: 国际轨道数据
星历时间: 2026-07-12T19:18:01+0800
半长轴: 17183.431km
偏心率: 0.605674
轨道倾角: 5.953°
近地点辐角: 38.005°
升交点赤经: 22.936°
平近点角: 352.251°
近地点: 397.736km
远地点: 21212.852km
周期: 373.615分钟
每日圈数: 3.854233
详细信息
发射场:
FRGUI
轨道高度:
LEO
数据来源:
AOE Integration Group
参考系:
TEME
时间系统:
UTC
历元类型:
SGP4
2D轨道图
3D轨道图
轨道高度分析图
轨道倾角分析图
轨道综合分析图
查看轨道综合分析图